Погода в Кяхте

Погода в Кяхте : погода сейчас, прогноз погоды и архив. Всё, что Вы хотите узнать о погоде в Кяхте!

Поиск расширенной информации на нашем сайте:

Другие новости

Новости СМИ2

Главная страница сайта

Новости сайта

02.10.2013

Напоминаем, что на нашем новом сайте вы можете получить высокодетализированные прогнозы погоды по пунктам России, СНГ и мира (включающие важные для авиации метеовеличины, такие как направление и скорость ветра, видимость, явления погоды, количество и форма облачности, нижняя и верхняя граница облачности), а также ознакомиться с разнообразными материалами по авиационной метеорологии и подборкой полезных ссылок на эту тему.

Сайт Метеоцентр.Азия посвящён разработке технологий оптимизации авиаметеорологического обслуживания, включая проектирование и перспективное создание нескольких автоматизированных авиаметеорологических систем:
- система выпуска высокодетальных прогностических карт явлений погоды для нижнего воздушного пространства по России и ближнему зарубежью;
- система верификации прогнозов TAF (выпускаемых синоптиками официальных АМСГ РФ и ближнего зарубежья) и AUTOTAF (выпускаемых сайтом Метеоцентр.Азия) - выявление ошибок, онлайн-сопоставление с фактической погодой METAR, автоматическое внесение коррективов в прогнозы при резком отклонении фактической погоды от прогноза, подсчёт оправдываемости прогнозов по элементам и в целом;
- система обработки, анализа и отображения авиаметеорологической информации для применения провайдерами метеорологической информации.

Рекомендуем: Популярные фирмы - стеклобанка. В паллетах

Погода в Кяхте - сегодня

Время (UTC), дата Ветер
(°,м/с) 
Видим.   Явления Облачность Т
(°С)
Тd
(°С)
f(%) Тe
(°С)
Pmin
(гПа)
dP
(гПа)
Po
(мм)
O2
(г/м3)
Тmin Tmax R s Состояние
почвы
12 18.02.17 310 (СЗ) н/о  {снег}  8/4 2000 м средняя, верхняя 
[Ac trans|Ci fib]
-14.2 -15.5 90 -14  1021.3  3.7  690  295    -10.7  0.9     
15 18.02.17 330 (СЗ) н/о    10/0 верхняя 
[Cs]
-14.2 -18 73 -14  1024.9  3.2  693  296           
18 18.02.17 030 (СВ) н/о    ясно 
-15.9 -18.7 79 -16  1028.6  2.7  695  299           
21 18.02.17 340 (С) н/о    ясно 
-18.4 -21.6 76 -23  1032.1  2.2  696  302           
00 19.02.17 330 (СЗ) 20000 м    1/1 2000 м средняя 
[Ac lent]
-19.4 -21.8 81 -20  1035.2  2.4  698  304  -21.8      равномерный
сухой снег
100% 
03 19.02.17 200 (Ю) 20000 м    ясно 
-9.3 -19.1 45 -9  1032.7  1.5  699  293           
06 19.02.17 100 (В) 20000 м    ясно 
-10.6 -18.3 53 -14  1033  -0.2  699  294           
09 19.02.17 200 (Ю) 20000 м    ясно 
-9.2 -20.3 40 -12  1032  -0.4  699  293           
12 19.02.17 120 (ЮВ) н/о    ясно 
-14.1 -20.7 57 -14  1034.6  0.6  699  299    -7.6       
15 19.02.17 тихо ()   н/о    ясно 
-15 -21.4 58 -15  1034.2  -0.6  699  299           
18 19.02.17 100 (В) н/о    ясно 
-15.6 -21.8 59 -16  1033.1  -1.2  698  300           
21 19.02.17 140 (ЮВ) н/о    8/4 2000 м средняя, верхняя 
[Ac As|Ci sp]
-16.3 -21.6 64 -16  1032.1  -1.2  697  300           
00 20.02.17 150 (ЮВ) 20000 м    10/8 2000 м средняя, верхняя 
[Ac As|Ci fib]
-15.2 -20.7 63 -15  1030.2  -1.4  696  298  -16.7      равномерный
сухой снег
100% 
03 20.02.17 200 (Ю) 6{11}  20000 м    10/8 2000 м средняя, верхняя 
[Ac As|Cs]
-12 -21.3 46 -18  1028.2  -0.6  695  295           
06 20.02.17 180 (Ю) 4{10}  20000 м    10/6 2000 м средняя, верхняя 
[Ac As|Cs]
-9.3 -18.6 47 -13  1027.3  0.1  696  291           
09 20.02.17 150 (ЮВ) 20000 м    10/8 2000 м средняя, верхняя 
[Ac As|Cs]
-8.6 -17.4 49 -10  1026.9  696  291           
12 20.02.17 360 (С) н/о    10/8 2000 м средняя, верхняя 
[Ac As|Cs]
-10 -16.5 59 -10  1028.7  1.1  696  292    -8.4       
15 20.02.17 тихо ()   н/о    6/0 верхняя 
[Cs]
-13.4 -17.9 69 -13  1030.6  0.5  697  297           
18 20.02.17 тихо ()   н/о    6/0 верхняя 
[Ci fib]
-15.9 -19.3 75 -16  1031.6  -0.1  697  299           
21 20.02.17 тихо ()   н/о    8/0 верхняя 
[Ci fib]
-16.5 -19.9 75 -17  1031.6  -0.2  697  300           
00 21.02.17 тихо ()   20000 м    3/1 2000 м средняя, верхняя 
[Ac trans|Ci fib]
-18.4 -19.8 89 -18  1032.8  0.4  697  302  -18.4      равномерный
сухой снег
100% 
03 21.02.17 150 (ЮВ) 10 км  дым  10/4 2000 м средняя, верхняя 
[Ac trans|Ci fib]
-12.3 -17.4 66 -12  1031.2  0.8  697  296           
06 21.02.17 150 (ЮВ) 20000 м    10/3 2000 м средняя, верхняя 
[Ac trans|Cs]
-8.9 -15.3 60 -11  1027.9  -1.8  696  291           
09 21.02.17 тихо ()   20000 м    10/10 2000 м 
[Ac As]
-9.5 -14.3 68 -10  1027.8  -0.2  696  292           
12 21.02.17 310 (СЗ) н/о    10/4 2000 м средняя, верхняя 
[Ac As|Cs]
-10.4 -15 69 -10  1029.9  1.5  697  293    -8.3       
Время (UTC), дата Ветер
(°,м/с) 
Видим.   Явления Облачность Т
(°С)
Тd
(°С)
f(%) Тe
(°С)
Pmin
(гПа)
dP
(гПа)
Po
(мм)
O2
(г/м3)
Тmin Tmax R s Состояние
почвы

Для получения пояснительной информации подведите курсор к названию столбца.

ПОГОДА в Кяхте - архив

Всё, что Вы хотите узнать о погоде в Кяхте - удобно и подробно!

Выберите нужную дату (начиная с 1 января 2015* года) и нажмите кнопку "Найти".
Будут отображены архивные сводки погоды по пункту Кяхта, начиная с указанной даты.


Отображать данные в формате CSV (для использования в таблицах Excel)


Внимание! Наш архив погоды предназначен исключительно для личного некоммерческого использования в познавательных целях. Если Вам необходимы официальные справки о состоянии погоды (для производственных, юридических, коммерческих и т.п. целей), обращайтесь в органы Росгидромета.

*Примечание: данная дата относится к архиву по метеостанциям СССР (Россия, СНГ, Балтия).
Архив по метеостанциям Зарубежной Европы и Азии (кроме Китая) хранится 10 дней, по другим регионам земного шара (Китай, Африка, Америка, Австралия, Океания) - 1 день.

Кяхта - район местоположения метеостанции


Название, широта, долгота, высота метеостанции:
Кяхта 50.4°ш. 106.4°д. 797 м над ур. моря [Российская Федерация]

Дополнительная информация

В oтличие oт бoльшинства пoгoдных сайтoв мы публикуем пoдрoбную метеoинфoрмацию в детальнoм прoфессиoнальнoм фoрмате.

Характеристики температуры и влажнoсти вoздуха измеряются на высoте 2 м в тени вдали oт зданий и деревьев.
Скoрoсть ветра измеряется на высoте 10 м (на урoвне рoста челoвека скoрoсть ветра ниже в 1.5-2 раза). Если метеoстанция нахoдится в гoрoде или в лесу, тo скoрoсть ветра занижена на 2-4 м/с пo сравнению с oткрытым местoм. Скoрoсть ветра над акватoриями крупных рек и oзёр, а также на вершинах хoлмoв на 2-5 м/с выше, чем в oбычных услoвиях.
Атмoсфернoе давление в разных тoчках местнoсти мoжет значительнo oтличаться oт давления на метеoстанции, в зависимoсти oт услoвий рельефа (при пoдъёме на 10 м давление пoнижается примернo на 1 мм рт.ст.).